[[{"header":{"parameterUnit":"m.s-1","parameterCategory":1,"la1":30.2991,"la2":30.254,"lo1":-89.0895,"lo2":-89.0444,"dy":0.0017,"dx":0.0017,"nx":28,"ny":28,"refTime":"2024-04-10T21:00:00:Z","depth":0,"parameterNumber":2,"parameterNumberName":"U-component_of_WINDS"},"data":[0,0,0,0,0,0,0,0,0,0,0,0,0,0,0,0,0,0,0,0,0,0,0,0,0,0,0,0,0,0,0,0,0,0,0,0,0,0,0,0,0,0,0,0,0,0,0,0,0,0,0,0,0,0,0,0,0,0,3.5216,3.5217,0,3.5325,3.5327,3.5328,3.5286,3.5284,3.5281,3.5279,3.5395,3.5401,3.5406,0,0,0,0,0,0,0,0,0,0,0,0,0,3.4976,3.4981,3.5216,3.5217,3.5219,3.5325,3.5327,3.5328,3.5287,3.5284,3.5281,3.5278,3.5394,3.54,3.5407,0,0,0,0,0,0,0,0,0,0,0,0,0,3.5083,3.4982,3.5216,3.5211,3.5211,3.5325,3.5327,3.5329,3.5287,3.5284,3.528,3.5276,3.5392,3.54,3.5408,3.5534,0,0,3.5433,3.5436,0,0,0,0,0,0,0,0,3.5077,3.5091,3.521,3.5211,3.5212,3.5288,3.5285,3.5398,3.5288,3.5259,3.5279,3.5274,3.5363,3.5373,3.5402,3.5539,3.5544,3.5433,3.5438,3.5442,3.5444,0,0,0,0,0,0,0,3.5069,3.5086,3.5259,3.5212,3.5213,3.5205,3.5215,3.5306,3.5331,3.5261,3.5258,3.5271,3.5363,3.5395,3.5405,3.5546,3.5433,3.544,3.5445,3.5449,3.5793,3.5797,0,0,0,0,0,0,3.5061,3.5081,3.5256,3.5263,3.5133,3.5212,3.5224,3.5268,3.533,3.5336,3.5275,3.5269,3.5382,3.5395,3.5409,3.5561,3.5442,3.5449,3.5454,3.5789,3.5794,3.5798,0,0,0,0,0,0,3.5056,3.5077,3.5252,3.5171,3.5192,3.522,3.5269,3.5272,3.5303,3.534,3.5345,3.5302,3.538,3.5397,3.5503,3.5565,3.5453,3.5461,3.5784,3.579,3.5796,3.5867,0,0,0,0,0,0,3.5049,3.5075,3.5123,3.5172,3.5197,3.5343,3.5273,3.5277,3.5317,3.5311,3.5367,3.5373,3.5378,3.5491,3.5511,3.5574,3.5467,3.5778,3.5787,3.5794,3.5859,3.5875,3.5888,0,0,0,0,0,3.5041,3.5139,3.5125,3.5147,3.5256,3.5346,3.5361,3.5364,3.5322,3.5371,3.5394,3.5371,3.5554,3.5502,3.5524,3.5591,3.5775,3.5784,3.5794,3.5852,3.5872,3.5888,0,0,0,0,0,0,3.5098,3.5145,3.5131,3.5248,3.5293,3.5339,3.54,3.5384,3.5443,3.5435,3.5438,3.5451,3.556,3.5586,3.5527,3.5716,3.5658,3.5673,3.5696,3.5714,3.5728,3.572,3.5474,0,0,0,0,0,3.5123,3.5191,3.523,3.5329,3.5353,3.5373,3.5412,3.541,3.5458,3.5478,3.5509,3.5558,3.5626,3.5671,3.5737,3.5862,3.5874,3.5919,3.5933,3.5945,3.5958,3.6027,3.6047,3.583,3.583,3.583,0,0,3.5178,3.5213,3.5256,3.5342,3.5377,3.5448,3.5389,3.5467,3.5521,3.549,3.5591,3.5616,3.5671,3.5787,3.584,3.5812,3.602,3.5957,3.5966,3.5973,3.6039,3.6059,3.6077,3.5836,3.5835,3.5834,0,0,3.5314,3.5347,3.5433,3.5469,3.5522,3.5535,3.5556,3.5604,3.5619,3.5721,3.5699,3.5764,3.5881,3.5921,3.5957,3.6108,3.6089,3.6129,3.6206,3.6273,3.629,3.6305,3.6359,3.6379,3.6142,3.6142,3.6142,0,3.5376,3.5481,3.548,3.556,3.5599,3.5573,3.5661,3.5697,3.5769,3.5798,3.5765,3.5912,3.5947,3.6072,3.6109,3.6139,3.6164,3.6123,3.6287,3.6302,3.6317,3.6368,3.6389,3.6146,3.6146,3.6145,3.6145,0,3.5555,3.5628,3.5692,3.5761,3.5807,3.5891,3.5904,3.5951,3.5946,3.5962,3.6066,3.6107,3.618,3.6209,3.6206,3.6335,3.6316,3.6285,3.6227,3.6342,3.6391,3.6411,3.6153,3.6151,3.615,3.6149,0,0,3.5731,3.5797,3.5821,3.5851,3.5908,3.5965,3.6049,3.6118,3.6159,3.621,3.628,3.6381,3.6353,3.6393,3.6393,3.6452,3.657,3.6415,3.6416,3.6442,3.6716,3.6738,3.6761,3.6557,3.6561,3.6564,3.6711,0,3.5871,3.6015,3.6017,3.615,3.6218,3.6194,3.6266,3.631,3.6328,3.6389,3.6409,3.648,3.6438,3.6462,3.6519,3.6543,3.6625,3.6533,3.6624,3.6628,3.6612,3.6787,3.6811,3.6948,3.673,3.6733,3.6736,0,3.6055,3.611,3.6249,3.6295,3.6324,3.6389,3.6453,3.6512,3.6561,3.657,3.6615,3.6606,3.6693,3.6631,3.6751,3.6688,3.6726,3.6744,3.6749,3.6758,3.6689,3.6801,3.6992,3.7012,3.6766,3.6763,3.6761,0,3.617,3.6279,3.6376,3.6403,3.646,3.6506,3.6532,3.6577,3.6619,3.6676,3.6703,3.677,3.6807,3.6859,3.6869,3.6823,3.6989,3.6929,3.7,3.7,3.7036,3.7034,3.7236,3.706,3.706,3.7059,3.7059,0,3.6327,3.6413,3.6428,3.6488,3.6584,3.6586,3.6682,3.6704,3.6745,3.681,3.6794,3.6856,3.6865,3.693,3.6938,3.7036,3.7053,3.7063,3.7065,3.7065,3.7064,3.709,3.7081,3.7065,3.7064,3.7063,3.7062,0,3.6472,3.6485,3.6589,3.6634,3.6647,3.6716,3.6755,3.6813,3.6828,3.6911,3.6931,3.6956,3.7031,3.7046,3.7136,3.7141,3.7258,3.725,3.7241,3.724,3.7311,3.7304,3.7537,3.7568,3.7372,3.7373,3.7375,0,3.6571,3.6637,3.6688,3.6729,3.6757,3.6824,3.6866,3.6871,3.6916,3.6977,3.7028,3.7101,3.7159,3.7281,3.7308,3.7376,3.737,3.7447,3.738,3.7379,3.7372,3.7368,3.7375,3.746,3.7462,3.7464,3.7465,0,3.6747,3.675,3.681,3.6873,3.6924,3.6974,3.7022,3.7057,3.7068,3.712,3.7195,3.7241,3.7331,3.7404,3.7472,3.7501,3.7486,3.7486,3.7506,3.7507,3.7499,3.7505,3.7276,3.7481,3.7479,3.7478,3.7477,3.7476,3.6873,3.693,3.6974,3.7042,3.7078,3.7123,3.718,3.7202,3.7264,3.7337,3.7336,3.7419,3.7467,3.7557,3.759,3.7656,3.7632,3.7661,3.7668,3.7676,3.7682,3.7488,3.7668,3.7668,3.7667,3.7667,3.7667,0,3.7048,3.7075,3.7137,3.7204,3.7257,3.7236,3.7288,3.7335,3.7407,3.7453,3.751,3.7597,3.7668,3.7701,3.7771,3.7817,3.7812,3.7836,3.7833,3.784,3.77,3.7675,3.7839,3.7839,3.7839,3.7839,3.7839,3.7839,3.7145,3.724,3.7249,3.7362,3.7389,3.7469,3.7501,3.7542,3.7578,3.7676,3.7734,3.7754,3.7794,3.7867,3.7932,3.7939,3.7966,3.7993,3.7998,3.7867,3.7849,3.7833,3.781,3.7999,3.7999,3.8133,3.8134,3.8135]},{"header":{"parameterUnit":"m.s-1","parameterCategory":1,"la1":30.2991,"la2":30.254,"lo1":-89.0895,"lo2":-89.0444,"dy":0.0017,"dx":0.0017,"nx":28,"ny":28,"refTime":"2024-04-10T21:00:00:Z","depth":0,"parameterNumber":3,"parameterNumberName":"V-component_of_WINDS"},"data":[0,0,0,0,0,0,0,0,0,0,0,0,0,0,0,0,0,0,0,0,0,0,0,0,0,0,0,0,0,0,0,0,0,0,0,0,0,0,0,0,0,0,0,0,0,0,0,0,0,0,0,0,0,0,0,0,0,0,-2.4654,-2.4657,0,-2.4926,-2.4929,-2.4932,-2.5001,-2.4999,-2.4997,-2.4996,-2.5278,-2.5287,-2.5296,0,0,0,0,0,0,0,0,0,0,0,0,0,-2.4199,-2.4207,-2.4654,-2.4658,-2.4661,-2.4926,-2.4929,-2.4933,-2.5001,-2.4999,-2.4997,-2.4995,-2.5275,-2.5286,-2.5297,0,0,0,0,0,0,0,0,0,0,0,0,0,-2.4427,-2.421,-2.4654,-2.4727,-2.4736,-2.4925,-2.4929,-2.4934,-2.5001,-2.4999,-2.4996,-2.4994,-2.5271,-2.5285,-2.5298,-2.5435,0,0,-2.534,-2.5346,0,0,0,0,0,0,0,0,-2.4414,-2.4443,-2.4713,-2.4722,-2.4733,-2.4927,-2.4873,-2.5102,-2.5002,-2.4901,-2.4996,-2.4992,-2.5163,-2.5186,-2.5243,-2.5448,-2.546,-2.5341,-2.5349,-2.5355,-2.5359,0,0,0,0,0,0,0,-2.4398,-2.4432,-2.4762,-2.4716,-2.4729,-2.4748,-2.4777,-2.4916,-2.5044,-2.4909,-2.4915,-2.4946,-2.5168,-2.5229,-2.525,-2.5464,-2.5341,-2.5353,-2.5361,-2.5367,-2.5798,-2.5801,0,0,0,0,0,0,-2.4369,-2.4418,-2.4753,-2.477,-2.4563,-2.4758,-2.4791,-2.4867,-2.5042,-2.5066,-2.4948,-2.4948,-2.5207,-2.5234,-2.526,-2.5433,-2.5355,-2.5368,-2.5376,-2.5795,-2.5799,-2.5802,0,0,0,0,0,0,-2.4359,-2.4398,-2.4742,-2.4596,-2.4641,-2.4768,-2.4854,-2.4874,-2.4935,-2.5071,-2.5095,-2.4986,-2.5206,-2.5241,-2.5391,-2.5444,-2.5374,-2.5387,-2.5791,-2.5796,-2.5801,-2.5779,0,0,0,0,0,0,-2.4345,-2.4394,-2.4446,-2.4596,-2.4649,-2.4867,-2.4857,-2.4881,-2.4958,-2.4961,-2.5114,-2.5136,-2.5207,-2.537,-2.5405,-2.5461,-2.5397,-2.5787,-2.5793,-2.5799,-2.5776,-2.5783,-2.5789,0,0,0,0,0,-2.4329,-2.4429,-2.4448,-2.4488,-2.4716,-2.487,-2.49,-2.4978,-2.4961,-2.5016,-2.5104,-2.5132,-2.5432,-2.5385,-2.5424,-2.5486,-2.5784,-2.5792,-2.5799,-2.5773,-2.5781,-2.5788,0,0,0,0,0,0,-2.4283,-2.445,-2.4473,-2.4625,-2.4733,-2.4881,-2.4952,-2.4984,-2.51,-2.5098,-2.519,-2.5224,-2.5369,-2.5443,-2.5387,-2.5629,-2.5608,-2.5624,-2.5575,-2.5584,-2.5591,-2.557,-2.5409,0,0,0,0,0,-2.429,-2.4399,-2.4541,-2.4661,-2.4714,-2.4823,-2.4894,-2.4944,-2.506,-2.5106,-2.5205,-2.5318,-2.5438,-2.5515,-2.5633,-2.5787,-2.5822,-2.5849,-2.5855,-2.586,-2.5872,-2.5961,-2.5975,-2.5826,-2.5826,-2.5826,0,0,-2.4307,-2.4412,-2.4475,-2.4655,-2.4744,-2.4857,-2.4861,-2.4981,-2.5066,-2.5125,-2.5273,-2.535,-2.5482,-2.5634,-2.5707,-2.57,-2.5921,-2.5869,-2.5871,-2.5882,-2.597,-2.5984,-2.5996,-2.5831,-2.583,-2.583,0,0,-2.4395,-2.4485,-2.4596,-2.4685,-2.482,-2.4893,-2.4919,-2.5064,-2.5116,-2.5266,-2.5313,-2.5417,-2.5621,-2.5714,-2.5788,-2.5913,-2.5943,-2.5949,-2.5983,-2.6068,-2.608,-2.6091,-2.6137,-2.6152,-2.5961,-2.5961,-2.5961,0,-2.4399,-2.457,-2.4649,-2.4767,-2.4845,-2.4902,-2.5017,-2.51,-2.5267,-2.5321,-2.5311,-2.557,-2.5662,-2.5839,-2.5869,-2.5926,-2.5962,-2.5932,-2.6071,-2.6083,-2.6094,-2.614,-2.6156,-2.596,-2.596,-2.596,-2.596,0,-2.4569,-2.4687,-2.4761,-2.4919,-2.5006,-2.5121,-2.522,-2.5299,-2.5342,-2.5416,-2.5569,-2.5682,-2.5825,-2.5871,-2.5914,-2.6054,-2.6046,-2.6052,-2.6034,-2.6107,-2.6151,-2.6169,-2.596,-2.596,-2.596,-2.596,0,0,-2.4635,-2.4837,-2.4863,-2.4936,-2.509,-2.5184,-2.5303,-2.5441,-2.5508,-2.5621,-2.5725,-2.5897,-2.5904,-2.5988,-2.6043,-2.6118,-2.6211,-2.6116,-2.612,-2.6131,-2.6375,-2.6369,-2.6388,-2.6232,-2.6236,-2.6239,-2.6364,0,-2.4744,-2.4956,-2.5032,-2.5208,-2.5319,-2.5375,-2.5479,-2.5586,-2.5659,-2.5765,-2.5846,-2.5967,-2.5967,-2.6018,-2.6094,-2.6183,-2.6262,-2.6176,-2.6331,-2.6336,-2.6297,-2.6411,-2.6406,-2.6518,-2.6382,-2.6385,-2.6387,0,-2.4898,-2.5013,-2.5199,-2.5341,-2.539,-2.5482,-2.5616,-2.5716,-2.5839,-2.5887,-2.5981,-2.6031,-2.616,-2.6133,-2.6312,-2.6252,-2.6321,-2.6374,-2.6381,-2.6399,-2.6366,-2.6434,-2.6556,-2.6573,-2.6414,-2.6412,-2.641,0,-2.4929,-2.5131,-2.5269,-2.533,-2.5498,-2.5561,-2.5635,-2.5755,-2.5834,-2.5952,-2.6004,-2.6136,-2.6208,-2.6309,-2.6394,-2.6367,-2.6567,-2.6547,-2.6612,-2.661,-2.6653,-2.6649,-2.6789,-2.6695,-2.6694,-2.6694,-2.6694,0,-2.5043,-2.5155,-2.5285,-2.537,-2.5499,-2.5585,-2.5711,-2.5788,-2.5895,-2.5997,-2.6055,-2.615,-2.6256,-2.6366,-2.6433,-2.6573,-2.6605,-2.6649,-2.6666,-2.6644,-2.6639,-2.6691,-2.6686,-2.6699,-2.6698,-2.6697,-2.6696,0,-2.51,-2.5191,-2.5346,-2.5492,-2.5532,-2.562,-2.5746,-2.5832,-2.5907,-2.6037,-2.6072,-2.6191,-2.6323,-2.6418,-2.6589,-2.6634,-2.6785,-2.6801,-2.6743,-2.6752,-2.6812,-2.6806,-2.6992,-2.7022,-2.6905,-2.6906,-2.6907,0,-2.5166,-2.5254,-2.541,-2.5482,-2.5555,-2.567,-2.5751,-2.5841,-2.5923,-2.607,-2.6139,-2.6275,-2.6389,-2.6598,-2.6701,-2.6833,-2.6853,-2.6909,-2.6873,-2.685,-2.6856,-2.685,-2.686,-2.6915,-2.6915,-2.6916,-2.6917,0,-2.5276,-2.5317,-2.543,-2.556,-2.5655,-2.5762,-2.587,-2.5926,-2.6035,-2.6125,-2.6261,-2.6349,-2.6523,-2.6659,-2.6801,-2.6878,-2.6917,-2.6927,-2.695,-2.6929,-2.6893,-2.6915,-2.6759,-2.6923,-2.6922,-2.6921,-2.6921,-2.6921,-2.5341,-2.5422,-2.5545,-2.567,-2.576,-2.586,-2.5948,-2.6035,-2.6149,-2.6297,-2.6343,-2.6484,-2.6608,-2.6802,-2.6881,-2.6994,-2.6992,-2.7024,-2.7032,-2.7039,-2.7039,-2.6873,-2.7021,-2.702,-2.702,-2.702,-2.702,0,-2.5455,-2.5536,-2.565,-2.5799,-2.5898,-2.5924,-2.6045,-2.6127,-2.625,-2.6361,-2.6471,-2.6628,-2.676,-2.6874,-2.7011,-2.708,-2.7101,-2.7113,-2.7109,-2.7127,-2.7033,-2.7,-2.7094,-2.7094,-2.7094,-2.7093,-2.7093,-2.7093,-2.5525,-2.5664,-2.572,-2.5906,-2.5988,-2.6125,-2.6193,-2.6286,-2.6375,-2.6547,-2.6656,-2.6729,-2.6842,-2.6988,-2.7111,-2.7141,-2.719,-2.7198,-2.7232,-2.7142,-2.7134,-2.7125,-2.7095,-2.7207,-2.7207,-2.7318,-2.7319,-2.732]}]]